Tracking 26321 objects as of 28-Nov-2022
HD Live streaming from Space Station
objects crossing your sky now

NOAA 16 DEB

Track NOAA 16 DEB now!
10-day predictions


NORAD ID: 41506
Int'l Code: 2000-055ME
Perigee: 741.6 km
Apogee: 822.2 km
Inclination: 98.8 °
Period: 100.3 minutes
Semi major axis: 7152 km
RCS: Unknown
Launch date: September 21, 2000
Source: United States (US)
Launch site: AIR FORCE WESTERN TEST RANGE (AFWTR)

Note: This is SATELLITE DEBRIS
aabbcc
Your satellite tracking list
Your tracking list is empty




NASA's NSSDC Master Catalog

Two Line Element Set (TLE):
1 41506U 00055ME  22331.81107343  .00007001  00000-0  24241-2 0  9997
2 41506  98.8049  93.5266 0056324 208.8670 150.9395 14.35083485357815
Source of the keplerian elements: AFSPC